When you browse on this site, cookies collect data to enhance your experience and personalize the content and advertising you see.
Visit our Privacy Policy to learn more. By continuing to use the site, you agree to this use of cookies and data.
  • In Portugal
  • List of Countries
  • For 7 days
  • Water Temperature
  • Weather Map
  • Weather Widgets
  • user-avatar
    Login

    Hourly Weather Florence

    Today, 6 April, Monday

    Time Temperature Precipitation Wind Pressure Humidity
    00:00 +15°C° 0 mm 2 mps 760 mmHg 89%
    01:00 +14°C° 0 mm 2 mps 760 mmHg 92%
    02:00 +14°C° 0 mm 2 mps 760 mmHg 92%
    03:00 +14°C° 0 mm 2 mps 760 mmHg 93%
    04:00 +14°C° 0 mm 2 mps 759 mmHg 93%
    05:00 +15°C° 0 mm 2 mps 760 mmHg 92%
    06:00 +15°C° 0 mm 2 mps 760 mmHg 91%
    07:00 +16°C° 0 mm 2 mps 760 mmHg 89%
    08:00 +18°C° 0 mm 2 mps 760 mmHg 80%
    09:00 +21°C° 0 mm 3 mps 761 mmHg 70%
    10:00 +24°C° 0 mm 3 mps 761 mmHg 61%
    11:00 +25°C° 0.1 mm 3 mps 760 mmHg 58%
    12:00 +26°C° 0.1 mm 4 mps 760 mmHg 55%
    13:00 +27°C° 0.1 mm 4 mps 759 mmHg 52%
    14:00 +27°C° 0.2 mm 4 mps 759 mmHg 51%
    15:00 +27°C° 0.2 mm 4 mps 758 mmHg 51%
    16:00 +27°C° 0.2 mm 4 mps 758 mmHg 50%
    17:00 +26°C° 0 mm 4 mps 758 mmHg 56%
    18:00 +24°C° 0 mm 3 mps 758 mmHg 62%
    19:00 +22°C° 0 mm 3 mps 758 mmHg 68%
    20:00 +20°C° 0.5 mm 2 mps 758 mmHg 74%
    21:00 +19°C° 0.5 mm 2 mps 759 mmHg 80%
    22:00 +19°C° 0.5 mm 1 mps 759 mmHg 86%
    23:00 +18°C° 0.4 mm 2 mps 759 mmHg 86%

    Tomorrow, 7 April, Tuesday

    Time Temperature Precipitation Wind Pressure Humidity
    00:00 +18°C° 0.4 mm 3 mps 758 mmHg 86%
    01:00 +17°C° 0.4 mm 3 mps 758 mmHg 85%
    02:00 +17°C° 0.4 mm 3 mps 758 mmHg 87%
    03:00 +17°C° 0.4 mm 3 mps 758 mmHg 88%
    04:00 +16°C° 0.4 mm 3 mps 758 mmHg 90%
    05:00 +16°C° 0 mm 3 mps 758 mmHg 90%
    06:00 +17°C° 0 mm 3 mps 758 mmHg 90%
    07:00 +17°C° 0 mm 3 mps 758 mmHg 89%
    08:00 +19°C° 0 mm 3 mps 758 mmHg 83%
    09:00 +21°C° 0 mm 3 mps 758 mmHg 77%
    10:00 +24°C° 0 mm 3 mps 758 mmHg 71%
    11:00 +25°C° 0 mm 4 mps 757 mmHg 65%
    12:00 +27°C° 0 mm 4 mps 757 mmHg 58%
    13:00 +28°C° 0 mm 5 mps 756 mmHg 52%
    14:00 +28°C° 0 mm 5 mps 756 mmHg 54%
    15:00 +28°C° 0 mm 5 mps 755 mmHg 56%
    16:00 +27°C° 0 mm 5 mps 755 mmHg 57%
    17:00 +26°C° 0 mm 6 mps 755 mmHg 62%
    18:00 +23°C° 0 mm 6 mps 755 mmHg 66%
    19:00 +22°C° 0 mm 6 mps 755 mmHg 70%
    20:00 +22°C° 0 mm 6 mps 755 mmHg 73%
    21:00 +21°C° 0 mm 6 mps 755 mmHg 76%
    22:00 +21°C° 0 mm 5 mps 755 mmHg 79%
    23:00 +20°C° 0 mm 5 mps 755 mmHg 80%

    Day after tomorrow, 8 April, Wednesday

    Time Temperature Precipitation Wind Pressure Humidity
    00:00 +19°C° 0 mm 4 mps 754 mmHg 81%
    01:00 +19°C° 0 mm 4 mps 754 mmHg 83%
    02:00 +18°C° 0 mm 4 mps 753 mmHg 83%
    03:00 +18°C° 0 mm 4 mps 753 mmHg 83%
    04:00 +17°C° 0 mm 5 mps 752 mmHg 84%
    05:00 +18°C° 0 mm 4 mps 752 mmHg 83%
    06:00 +18°C° 0 mm 4 mps 752 mmHg 83%
    07:00 +18°C° 0 mm 4 mps 752 mmHg 83%
    08:00 +20°C° 0 mm 4 mps 752 mmHg 78%
    09:00 +22°C° 0 mm 5 mps 752 mmHg 73%
    10:00 +25°C° 0 mm 5 mps 752 mmHg 69%
    11:00 +27°C° 0 mm 5 mps 751 mmHg 65%
    12:00 +28°C° 0 mm 5 mps 751 mmHg 60%
    13:00 +29°C° 0 mm 5 mps 750 mmHg 56%
    14:00 +30°C° 0 mm 5 mps 749 mmHg 55%
    15:00 +30°C° 0 mm 5 mps 749 mmHg 53%
    16:00 +30°C° 0 mm 5 mps 748 mmHg 52%
    17:00 +28°C° 0 mm 4 mps 748 mmHg 58%
    18:00 +27°C° 0 mm 3 mps 749 mmHg 64%
    19:00 +25°C° 0 mm 2 mps 749 mmHg 71%
    20:00 +24°C° 0.1 mm 2 mps 749 mmHg 74%
    21:00 +24°C° 0.1 mm 2 mps 750 mmHg 77%
    22:00 +23°C° 0.1 mm 2 mps 750 mmHg 80%
    23:00 +21°C° 0 mm 2 mps 750 mmHg 82%

    9 April, Thursday

    Time Temperature Precipitation Wind Pressure Humidity
    00:00 +21°C° 0 mm 2 mps 750 mmHg 83%
    01:00 +20°C° 0 mm 2 mps 750 mmHg 85%
    02:00 +20°C° 0 mm 2 mps 749 mmHg 86%
    03:00 +19°C° 0 mm 2 mps 749 mmHg 87%
    04:00 +20°C° 0 mm 1 mps 749 mmHg 87%
    05:00 +19°C° 0 mm 2 mps 749 mmHg 87%
    06:00 +19°C° 0 mm 2 mps 750 mmHg 86%
    07:00 +19°C° 0 mm 2 mps 750 mmHg 86%
    08:00 +22°C° 0 mm 3 mps 750 mmHg 79%
    09:00 +25°C° 0 mm 4 mps 749 mmHg 71%
    10:00 +28°C° 0 mm 5 mps 749 mmHg 64%
    11:00 +30°C° 0 mm 6 mps 748 mmHg 55%
    12:00 +32°C° 0 mm 7 mps 748 mmHg 47%
    13:00 +34°C° 0 mm 8 mps 747 mmHg 38%
    14:00 +34°C° 0 mm 7 mps 747 mmHg 38%
    15:00 +34°C° 0 mm 7 mps 747 mmHg 38%
    16:00 +33°C° 0 mm 6 mps 746 mmHg 38%
    17:00 +30°C° 0 mm 5 mps 746 mmHg 44%
    18:00 +28°C° 0 mm 4 mps 747 mmHg 50%
    19:00 +26°C° 0 mm 4 mps 747 mmHg 55%
    20:00 +25°C° 0 mm 3 mps 747 mmHg 56%
    21:00 +22°C° 0 mm 3 mps 747 mmHg 56%
    22:00 +21°C° 0 mm 2 mps 748 mmHg 57%
    23:00 +21°C° 0.1 mm 3 mps 748 mmHg 58%

    10 April, Friday

    Time Temperature Precipitation Wind Pressure Humidity
    00:00 +20°C° 0.1 mm 3 mps 748 mmHg 59%
    01:00 +19°C° 0.1 mm 3 mps 749 mmHg 59%
    02:00 +18°C° 0.9 mm 3 mps 749 mmHg 69%
    03:00 +16°C° 0.9 mm 2 mps 749 mmHg 78%
    04:00 +15°C° 0.9 mm 2 mps 749 mmHg 87%
    05:00 +15°C° 0.8 mm 2 mps 749 mmHg 88%
    06:00 +14°C° 0.8 mm 1 mps 749 mmHg 89%
    07:00 +14°C° 0.8 mm 1 mps 750 mmHg 89%
    08:00 +15°C° 0.5 mm 1 mps 750 mmHg 90%
    09:00 +15°C° 0.5 mm 1 mps 750 mmHg 90%
    10:00 +15°C° 0.5 mm 2 mps 750 mmHg 91%
    11:00 +16°C° 0.1 mm 2 mps 750 mmHg 84%
    12:00 +16°C° 0.1 mm 3 mps 749 mmHg 78%
    13:00 +16°C° 0.1 mm 3 mps 749 mmHg 72%
    14:00 +16°C° 0 mm 3 mps 749 mmHg 73%
    15:00 +14°C° 0 mm 3 mps 749 mmHg 73%
    16:00 +13°C° 0 mm 3 mps 749 mmHg 74%
    17:00 +13°C° 0.2 mm 3 mps 750 mmHg 74%
    18:00 +13°C° 0.2 mm 2 mps 751 mmHg 74%
    19:00 +13°C° 0.2 mm 2 mps 752 mmHg 74%
    20:00 +11°C° 0 mm 3 mps 753 mmHg 68%
    21:00 +10°C° 0 mm 3 mps 754 mmHg 63%
    22:00 +10°C° 0 mm 4 mps 755 mmHg 58%
    23:00 +8°C° 0 mm 4 mps 756 mmHg 57%

    11 April, Saturday

    Time Temperature Precipitation Wind Pressure Humidity
    00:00 +8°C° 0 mm 3 mps 756 mmHg 57%
    01:00 +7°C° 0 mm 3 mps 757 mmHg 56%
    02:00 +5°C° 0 mm 3 mps 757 mmHg 58%
    03:00 +5°C° 0 mm 3 mps 757 mmHg 59%
    04:00 +4°C° 0 mm 3 mps 758 mmHg 60%
    05:00 +4°C° 0 mm 3 mps 758 mmHg 60%
    06:00 +5°C° 0 mm 3 mps 758 mmHg 60%
    07:00 +5°C° 0 mm 3 mps 759 mmHg 61%
    08:00 +8°C° 0 mm 2 mps 759 mmHg 54%
    09:00 +10°C° 0 mm 2 mps 759 mmHg 48%
    10:00 +13°C° 0 mm 2 mps 759 mmHg 41%
    11:00 +13°C° 0 mm 3 mps 759 mmHg 39%
    12:00 +14°C° 0 mm 3 mps 759 mmHg 36%
    13:00 +15°C° 0 mm 4 mps 759 mmHg 34%
    14:00 +17°C° 0 mm 4 mps 759 mmHg 34%
    15:00 +17°C° 0 mm 4 mps 758 mmHg 34%
    16:00 +17°C° 0 mm 4 mps 758 mmHg 35%
    17:00 +16°C° 0 mm 3 mps 758 mmHg 40%
    18:00 +13°C° 0 mm 3 mps 758 mmHg 46%
    19:00 +13°C° 0 mm 2 mps 759 mmHg 51%
    20:00 +12°C° 0 mm 2 mps 759 mmHg 51%
    21:00 +11°C° 0 mm 1 mps 760 mmHg 51%
    22:00 +11°C° 0 mm 1 mps 760 mmHg 51%
    23:00 +10°C° 0 mm 1 mps 761 mmHg 53%
    Show more